Fargo, ND

6:34 AM CST on November 13, 2019 (GMT -0600)
Hector International

Weather History for KFAR - September, 2019

Change the Weather History Date:

Saturday, September 21, 2019

  Actual Average Record
Temperature  
Mean Temperature 68 °F 57 °F  
Max Temperature 79 °F 68 °F 96 °F (1937)
Min Temperature 56 °F 45 °F 24 °F (1974)
Degree Days  
Heating Degree Days 0 9  
Month to date heating degree days 80 121  
Since 1 July heating degree days 125 171  
Cooling Degree Days 2 1  
Month to date cooling degree days 56 39  
Year to date cooling degree days 527 544  
Growing Degree Days 18 (Base 50)    
Moisture  
Dew Point 62 °F    
Average Humidity 83    
Maximum Humidity 100    
Minimum Humidity 54    
Precipitation  
Precipitation 0.47 in 0.08 in 0.99 in (1883)
Month to date precipitation 3.24 1.90  
Year to date precipitation 23.47 17.93  
Snow  
Snow 0.00 in 0.00 in T in (2007)
Month to date snowfall 0.0 0.0  
Since 1 July snowfall 0.0 0.0  
Since 1 September snowfall 0.0 0.0  
Snow Depth 0.00 in    
Sea Level Pressure  
Sea Level Pressure 29.65 in    
Wind  
Wind Speed 13 mph ()    
Max Wind Speed 39 mph    
Max Gust Speed 60 mph    
Visibility 8.6 miles    
Events Fog , Rain , Thunderstorm    
T = Trace of Precipitation, MM = Missing Value Source: Averaged Metar Reports

Daily Weather History Graph

Daily Weather History Graph

Search for Another Location

Airport or City:

Astronomy

Sep. 21, 2019 Rise Set
Actual Time 7:12 AM CDT 7:27 PM CDT
Civil Twilight 6:42 AM CDT 7:57 PM CDT
Nautical Twilight 6:06 AM CDT 8:33 PM CDT
Astronomical Twilight 5:29 AM CDT 9:10 PM CDT
Moon 11:41 PM CDT (9/21) 2:44 PM CDT (9/21)
Length of Visible Light 13h 15m
Length of Day
12h 14m
Waning Gibbous, 54% of the Moon is Illuminated
Sep 21
Waning Gibbous
Sep 21
Last Quarter
Sep 28
New
Oct 5
First Quarter
Oct 13
Full

Hourly Weather History & Observations

Time (CDT) Temp. Dew Point Humidity Pressure Visibility Wind Dir Wind Speed Gust Speed Precip Events Conditions
12:53 AM 77.0 °F 68.0 °F 74% 29.68 in 10.0 mi South 18.4 mph 28.8 mph N/A   Clear
1:53 AM 77.0 °F 66.9 °F 71% 29.67 in 10.0 mi South 17.3 mph 26.5 mph N/A   Clear
2:19 AM 77.0 °F 66.9 °F 71% 29.68 in 10.0 mi South 13.8 mph 27.6 mph N/A Thunderstorm Thunderstorm
2:34 AM 75.9 °F 66.9 °F 74% 29.67 in 10.0 mi South 15.0 mph 25.3 mph N/A   Overcast
2:53 AM 75.9 °F 66.9 °F 74% 29.65 in 10.0 mi South 19.6 mph 31.1 mph N/A   Overcast
3:24 AM 69.1 °F 64.0 °F 84% 29.65 in 10.0 mi North 15.0 mph - N/A   Overcast
3:53 AM 66.0 °F 60.1 °F 81% 29.63 in 10.0 mi NNE 15.0 mph 21.9 mph N/A   Overcast
4:15 AM 66.0 °F 60.1 °F 81% 29.62 in 10.0 mi NNE 10.4 mph - N/A Thunderstorm Thunderstorm
4:53 AM 64.0 °F 61.0 °F 90% 29.60 in 4.0 mi NE 11.5 mph - 0.02 in Rain , Thunderstorm Thunderstorms and Rain
5:15 AM 66.0 °F 63.0 °F 90% 29.60 in 10.0 mi Variable 3.5 mph 17.3 mph 0.14 in   Overcast
5:53 AM 64.0 °F 62.1 °F 93% 29.60 in 10.0 mi NNW 6.9 mph - 0.14 in Rain Light Rain
6:21 AM 64.0 °F 63.0 °F 96% 29.63 in 7.0 mi Calm Calm - 0.01 in Rain Light Rain
6:45 AM 63.0 °F 62.1 °F 97% 29.66 in 9.0 mi WNW 18.4 mph 27.6 mph 0.01 in Rain Light Rain
6:53 AM 63.0 °F 62.1 °F 97% 29.63 in 8.0 mi WNW 17.3 mph - 0.01 in Rain Rain
7:07 AM 63.0 °F 62.1 °F 97% 29.59 in 10.0 mi NNE 10.4 mph - 0.04 in Rain Light Rain
7:53 AM 63.0 °F 62.1 °F 97% 29.55 in 10.0 mi East 8.1 mph 18.4 mph 0.05 in   Scattered Clouds
8:53 AM 64.9 °F 64.0 °F 97% 29.57 in 10.0 mi SSE 5.8 mph - N/A   Clear
9:53 AM 69.1 °F 66.9 °F 93% 29.57 in 10.0 mi South 13.8 mph - N/A   Clear
10:10 AM 71.1 °F 68.0 °F 90% 29.60 in 10.0 mi South 16.1 mph - N/A   Scattered Clouds
10:53 AM 73.0 °F 66.9 °F 81% 29.60 in 10.0 mi SSW 17.3 mph 24.2 mph N/A   Scattered Clouds
11:16 AM 73.0 °F 66.0 °F 79% 29.62 in 10.0 mi WSW 17.3 mph 28.8 mph N/A   Mostly Cloudy
11:41 AM 72.0 °F 64.9 °F 78% 29.63 in 10.0 mi West 15.0 mph 28.8 mph N/A   Mostly Cloudy
11:53 AM 72.0 °F 64.9 °F 78% 29.62 in 10.0 mi WSW 15.0 mph - N/A   Mostly Cloudy
12:53 PM 73.9 °F 64.0 °F 71% 29.61 in 10.0 mi WSW 16.1 mph - N/A   Mostly Cloudy
1:53 PM 75.9 °F 63.0 °F 64% 29.61 in 10.0 mi SW 15.0 mph - N/A   Overcast
2:53 PM 75.9 °F 62.1 °F 62% 29.61 in 10.0 mi WSW 18.4 mph 26.5 mph N/A   Mostly Cloudy
3:53 PM 79.0 °F 62.1 °F 56% 29.62 in 10.0 mi WSW 16.1 mph - N/A   Partly Cloudy
4:53 PM 78.1 °F 61.0 °F 56% 29.61 in 10.0 mi WSW 15.0 mph - N/A   Clear
5:23 PM 73.4 °F 62.6 °F 69% 29.62 in 10.0 mi West 16.1 mph - N/A Thunderstorm Clear
5:37 PM 66.9 °F 60.1 °F 79% 29.68 in 1.5 mi WSW 39.1 mph 59.8 mph 0.00 in Rain , Thunderstorm Light Thunderstorms and Rain
5:39 PM 64.0 °F 59.0 °F 84% 29.67 in 0.5 mi West 29.9 mph 59.8 mph 0.00 in Rain , Thunderstorm Heavy Thunderstorms and Rain
5:46 PM 61.0 °F 59.0 °F 93% 29.66 in 0.2 mi WNW 11.5 mph 58.7 mph 0.22 in Fog , Rain , Thunderstorm Heavy Thunderstorms and Rain
5:49 PM 62.6 °F 60.8 °F 94% 29.66 in 1.0 mi NW 10.4 mph 25.3 mph 0.25 in Rain , Thunderstorm Thunderstorms and Rain
5:51 PM 62.6 °F 60.8 °F 94% 29.66 in 3.0 mi NW 10.4 mph - 0.25 in Rain , Thunderstorm Light Thunderstorms and Rain
5:53 PM 62.1 °F 60.1 °F 93% 29.66 in 5.0 mi NW 9.2 mph - 0.25 in Rain , Thunderstorm Light Rain
6:09 PM 66.2 °F 62.6 °F 88% 29.67 in 10.0 mi WNW 11.5 mph - N/A   Mostly Cloudy
6:53 PM 66.0 °F 61.0 °F 84% 29.68 in 10.0 mi WNW 8.1 mph - 0.00 in   Partly Cloudy
7:53 PM 63.0 °F 59.0 °F 87% 29.71 in 10.0 mi West 9.2 mph - N/A   Mostly Cloudy
8:53 PM 63.0 °F 57.0 °F 81% 29.75 in 10.0 mi West 8.1 mph - N/A   Overcast
9:53 PM 60.1 °F 55.0 °F 83% 29.75 in 10.0 mi West 6.9 mph - N/A   Mostly Cloudy
10:53 PM 59.0 °F 55.0 °F 87% 29.77 in 10.0 mi WNW 8.1 mph - N/A   Partly Cloudy
11:53 PM 59.0 °F 54.0 °F 83% 29.80 in 10.0 mi WNW 11.5 mph - N/A   Overcast